Paris, IL

12:04 PM CST on December 02, 2016 (GMT -0600)
Edgar County

Weather History for KPRG - May, 2014

Change the Weather History Date:

Thursday, May 8, 2014

  Actual Average (KHUF) Record (KHUF)
Temperature  
Mean Temperature 77 °F 60 °F  
Max Temperature 88 °F 72 °F 88 °F (1986)
Min Temperature 66 °F 49 °F 29 °F (1976)
Degree Days  
Heating Degree Days 0 6  
Month to date heating degree days 52  
Since 1 July heating degree days 5272  
Cooling Degree Days 12 1  
Month to date cooling degree days 8  
Year to date cooling degree days 23  
Growing Degree Days 27 (Base 50)    
Moisture  
Dew Point 60 °F    
Average Humidity 57    
Maximum Humidity 77    
Minimum Humidity 36    
Precipitation  
Precipitation 0.00 in 0.22 in 2.74 in (2002)
Month to date precipitation 1.86  
Year to date precipitation 13.67  
Sea Level Pressure  
Sea Level Pressure 29.93 in    
Wind  
Wind Speed 15 mph (South)    
Max Wind Speed 28 mph    
Max Gust Speed 36 mph    
Visibility 10 miles    
Events      
T = Trace of Precipitation, MM = Missing Value Source: NWS Daily Summary

Daily Weather History Graph

Daily Weather History Graph

Search for Another Location

Airport or City:

Trip Planner

Search our weather history database for the weather conditions in past years. The results will help you decide how hot, cold, wet, or windy it might be!

Date:

Astronomy

May. 08, 2014 Rise Set
Actual Time 5:43 AM CDT 7:51 PM CDT
Civil Twilight 5:13 AM CDT 8:21 PM CDT
Nautical Twilight 4:36 AM CDT 8:58 PM CDT
Astronomical Twilight 3:57 AM CDT 9:38 PM CDT
Moon 1:53 PM CDT (5/8) 2:13 AM CDT (5/8)
Length of Visible Light 15h 08m
Length of Day
14h 08m
Waxing Gibbous, 65% of the Moon is Illuminated
May 8
Waxing Gibbous
May 14
Full
May 21
Last Quarter
May 28
New
Jun 5
First Quarter

Hourly Weather History & Observations

Time (CDT) Temp. Heat Index Dew Point Humidity Pressure Visibility Wind Dir Wind Speed Gust Speed Precip Events Conditions
12:15 AM 68.0 °F - 56.7 °F 67% 29.90 in 10.0 mi SSE 8.1 mph - N/A   Clear
12:35 AM 68.9 °F - 57.2 °F 66% 29.90 in 10.0 mi South 9.2 mph - N/A   Clear
12:55 AM 68.5 °F - 57.2 °F 67% 29.90 in 10.0 mi South 10.4 mph - N/A   Clear
1:15 AM 68.0 °F - 57.4 °F 69% 29.90 in 10.0 mi South 10.4 mph - N/A   Clear
1:35 AM 68.4 °F - 57.7 °F 69% 29.90 in 10.0 mi South 10.4 mph - N/A   Clear
1:55 AM 68.9 °F - 58.1 °F 68% 29.91 in 10.0 mi South 9.2 mph - N/A   Clear
2:15 AM 68.2 °F - 58.1 °F 70% 29.90 in 10.0 mi South 8.1 mph - N/A   Clear
2:55 AM 67.6 °F - 58.3 °F 72% 29.91 in 10.0 mi South 10.4 mph - N/A   Clear
3:15 AM 68.7 °F - 58.5 °F 70% 29.91 in 10.0 mi South 13.8 mph 19.6 mph N/A   Clear
3:35 AM 68.9 °F - 58.6 °F 70% 29.91 in 10.0 mi South 15.0 mph - N/A   Clear
3:55 AM 68.5 °F - 58.6 °F 71% 29.91 in 10.0 mi South 11.5 mph 17.3 mph N/A   Clear
4:15 AM 68.4 °F - 58.6 °F 71% 29.91 in 10.0 mi South 11.5 mph - N/A   Clear
4:35 AM 68.0 °F - 58.6 °F 72% 29.91 in 10.0 mi South 10.4 mph - N/A   Clear
4:55 AM 67.3 °F - 59.0 °F 75% 29.92 in 10.0 mi South 13.8 mph 18.4 mph N/A   Clear
5:15 AM 67.1 °F - 59.0 °F 75% 29.93 in 10.0 mi South 12.7 mph - N/A   Clear
5:35 AM 67.1 °F - 59.0 °F 75% 29.93 in 10.0 mi South 10.4 mph 16.1 mph N/A   Clear
5:55 AM 66.6 °F - 59.0 °F 77% 29.93 in 10.0 mi South 10.4 mph - N/A   Clear
6:15 AM 66.6 °F - 59.2 °F 77% 29.94 in 10.0 mi South 11.5 mph - N/A   Clear
6:35 AM 68.0 °F - 59.9 °F 75% 29.95 in 10.0 mi South 10.4 mph - N/A   Clear
6:55 AM 69.4 °F - 60.1 °F 72% 29.96 in 10.0 mi South 12.7 mph - N/A   Clear
7:15 AM 69.4 °F - 59.9 °F 72% 29.96 in 10.0 mi South 12.7 mph 18.4 mph N/A   Clear
7:35 AM 71.4 °F - 60.8 °F 69% 29.95 in 10.0 mi South 16.1 mph - N/A   Clear
7:55 AM 72.9 °F - 60.8 °F 66% 29.96 in 10.0 mi SSW 19.6 mph 25.3 mph N/A   Clear
8:15 AM 74.5 °F - 61.0 °F 63% 29.96 in 10.0 mi SSW 19.6 mph 24.2 mph N/A   Clear
8:35 AM 75.7 °F - 61.2 °F 60% 29.96 in 10.0 mi SSW 21.9 mph 28.8 mph N/A   Clear
8:55 AM 77.2 °F - 61.5 °F 58% 29.97 in 10.0 mi SSW 21.9 mph 28.8 mph N/A   Clear
9:15 AM 78.6 °F - 61.7 °F 56% 29.97 in 10.0 mi SSW 25.3 mph 32.2 mph N/A   Clear
9:35 AM 79.7 °F - 62.1 °F 55% 29.97 in 10.0 mi SSW 23.0 mph 29.9 mph N/A   Clear
9:55 AM 80.8 °F 81.6 °F 61.2 °F 51% 29.97 in 10.0 mi SSW 21.9 mph 31.1 mph N/A   Clear
10:15 AM 82.0 °F 82.5 °F 60.8 °F 48% 29.96 in 10.0 mi SSW 24.2 mph 34.5 mph N/A   Clear
10:35 AM 83.1 °F 83.5 °F 61.0 °F 47% 29.97 in 10.0 mi SSW 19.6 mph 33.4 mph N/A   Clear
10:55 AM 82.8 °F 83.3 °F 61.2 °F 48% 29.96 in 10.0 mi SSW 20.7 mph 29.9 mph N/A   Clear
11:15 AM 83.7 °F 83.9 °F 60.6 °F 46% 29.96 in 10.0 mi SSW 24.2 mph 28.8 mph N/A   Clear
11:35 AM 83.1 °F 83.3 °F 60.6 °F 46% 29.96 in 10.0 mi South 19.6 mph 29.9 mph N/A   Clear
11:55 AM 85.3 °F 85.0 °F 59.9 °F 42% 29.96 in 10.0 mi South 21.9 mph 29.9 mph N/A   Clear
12:15 PM 85.6 °F 85.2 °F 59.4 °F 41% 29.95 in 10.0 mi South 24.2 mph 28.8 mph N/A   Clear
12:35 PM 85.6 °F 85.2 °F 59.2 °F 41% 29.94 in 10.0 mi South 20.7 mph 28.8 mph N/A   Clear
12:55 PM 87.6 °F 87.2 °F 59.5 °F 39% 29.94 in 10.0 mi South 25.3 mph 28.8 mph N/A   Clear
1:15 PM 86.9 °F 86.1 °F 58.5 °F 38% 29.92 in 10.0 mi SSW 16.1 mph 28.8 mph N/A   Clear
1:35 PM 86.9 °F 86.3 °F 59.4 °F 39% 29.93 in 10.0 mi SSW 24.2 mph 28.8 mph N/A   Clear
1:55 PM 86.9 °F 86.5 °F 60.1 °F 40% 29.93 in 10.0 mi South 21.9 mph 31.1 mph N/A   Clear
2:15 PM 87.6 °F 87.2 °F 59.5 °F 39% 29.92 in 10.0 mi South 25.3 mph 28.8 mph N/A   Clear
2:35 PM 87.8 °F 87.1 °F 59.0 °F 38% 29.92 in 10.0 mi South 27.6 mph 32.2 mph N/A   Clear
2:55 PM 88.0 °F 87.6 °F 60.4 °F 39% 29.92 in 10.0 mi South 24.2 mph 31.1 mph N/A   Scattered Clouds
3:15 PM 87.3 °F 86.7 °F 59.5 °F 39% 29.91 in 10.0 mi SSW 23.0 mph 35.7 mph N/A   Scattered Clouds
3:35 PM 88.0 °F 86.9 °F 57.6 °F 36% 29.90 in 10.0 mi South 21.9 mph 34.5 mph N/A   Clear
3:55 PM 87.3 °F 86.3 °F 57.7 °F 37% 29.90 in 10.0 mi South 24.2 mph 34.5 mph N/A   Scattered Clouds
4:15 PM 86.9 °F 86.1 °F 58.1 °F 38% 29.90 in 10.0 mi SSW 26.5 mph 35.7 mph N/A   Scattered Clouds
4:35 PM 87.4 °F 86.5 °F 58.1 °F 37% 29.91 in 10.0 mi South 25.3 mph 33.4 mph N/A   Scattered Clouds
4:55 PM 86.0 °F 85.0 °F 57.7 °F 38% 29.91 in 10.0 mi SSW 24.2 mph 32.2 mph N/A   Clear
5:15 PM 84.7 °F 84.0 °F 58.1 °F 40% 29.91 in 10.0 mi South 27.6 mph 34.5 mph N/A   Clear
5:35 PM 84.6 °F 84.2 °F 59.4 °F 42% 29.91 in 10.0 mi South 21.9 mph 28.8 mph N/A   Clear
5:55 PM 83.1 °F 83.5 °F 61.0 °F 47% 29.91 in 10.0 mi South 21.9 mph 27.6 mph N/A   Clear
6:15 PM 82.4 °F 82.9 °F 61.0 °F 48% 29.92 in 10.0 mi South 19.6 mph 26.5 mph N/A   Clear
6:35 PM 81.5 °F 82.2 °F 61.3 °F 50% 29.92 in 10.0 mi South 18.4 mph 24.2 mph N/A   Clear
6:55 PM 80.8 °F 81.6 °F 61.3 °F 51% 29.92 in 10.0 mi South 16.1 mph - N/A   Scattered Clouds
7:15 PM 79.9 °F - 61.7 °F 54% 29.92 in 10.0 mi South 15.0 mph 23.0 mph N/A   Scattered Clouds
7:35 PM 79.3 °F - 61.7 °F 55% 29.92 in 10.0 mi South 16.1 mph 21.9 mph N/A   Scattered Clouds
7:55 PM 78.1 °F - 61.7 °F 57% 29.92 in 10.0 mi South 15.0 mph - N/A   Scattered Clouds
8:15 PM 77.5 °F - 61.9 °F 58% 29.93 in 10.0 mi South 15.0 mph - N/A   Clear
8:35 PM 77.0 °F - 62.2 °F 60% 29.93 in 10.0 mi South 15.0 mph - N/A   Clear
8:55 PM 77.0 °F - 62.6 °F 61% 29.93 in 10.0 mi South 13.8 mph - N/A   Clear
9:15 PM 77.0 °F - 62.6 °F 61% 29.93 in 10.0 mi South 18.4 mph - N/A   Clear
9:35 PM 76.5 °F - 63.0 °F 63% 29.93 in 10.0 mi South 17.3 mph 24.2 mph N/A   Clear
9:55 PM 77.0 °F - 62.6 °F 61% 29.93 in 10.0 mi South 16.1 mph - N/A   Clear
10:15 PM 75.6 °F - 63.5 °F 66% 29.92 in 10.0 mi South 18.4 mph - N/A   Clear
10:35 PM 75.2 °F - 63.5 °F 67% 29.92 in 10.0 mi South 18.4 mph - N/A   Clear
10:55 PM 75.2 °F - 63.5 °F 67% 29.90 in 10.0 mi South 15.0 mph - N/A   Scattered Clouds
11:15 PM 74.7 °F - 63.5 °F 68% 29.90 in 10.0 mi South 15.0 mph - N/A   Clear
11:35 PM 74.5 °F - 63.5 °F 68% 29.91 in 10.0 mi South 15.0 mph - N/A   Scattered Clouds
11:55 PM 75.0 °F - 63.1 °F 66% 29.90 in 10.0 mi South 16.1 mph 23.0 mph N/A   Mostly Cloudy